Terminal Aerodrome Forecast
Issued by NWS Twin Cities, MN

Home | Current Version | Previous Version | Graphics & Text | Print | Product List | Glossary On
Versions: 1 2 3 4 5 6 7 8 9 10 11 12 13
000
FTUS43 KMPX 240912 AAB
TAFEAU
TAF AMD
KEAU 240912Z 2409/2506 15009KT P6SM VCSH BKN015 OVC020
     FM241030 22005KT 4SM BR BKN007 OVC020
     FM241600 26007KT P6SM FEW015 BKN025
     FM241900 29010KT P6SM FEW025 SCT200=

USA.gov is the U.S. government's official web portal to all federal, state and local government web resources and services.